WetterOnline ( http://www.wetteronline.de )

Wetter aktuell Seehausen (Altmark)

Aktuelles Wetter: Seehausen (23m)

6-stündlich | Neueste Meldungen
Ortszeit Temperatur Wetter
So, 20.01. 1:00 -5.4° C wolkenlos
Sa, 19.01. 19:00 -3.4° C wolkenlos
Sa, 19.01. 13:00 1.4° C leicht bewölkt
Sa, 19.01. 7:00 -2.3° C wolkig
Sa, 19.01. 1:00 0.4° C bewölkt
Fr, 18.01. 19:00 1.1° C bedeckt
Fr, 18.01. 13:00 1.4° C wolkenlos
Fr, 18.01. 7:00 -2.1° C wolkenlos
Ortszeit Temperatur Wetter
So, 20.01. 5:30 -6.9° C wolkenlos
So, 20.01. 5:20 -6.9° C wolkenlos
So, 20.01. 5:10 -7.0° C fast wolkenlos
So, 20.01. 5:00 -6.7° C leicht bewölkt
So, 20.01. 4:50 -6.7° C leicht bewölkt
So, 20.01. 4:40 -6.6° C leicht bewölkt
So, 20.01. 4:30 -6.4° C fast wolkenlos
So, 20.01. 4:00 -6.2° C wolkenlos
So, 20.01. 3:30 -6.3° C wolkenlos
So, 20.01. 3:00 -5.9° C wolkenlos
So, 20.01. 2:30 -5.8° C wolkenlos
Ortszeit Relative Feuchte Sichtweite
So, 20.01. 1:00 93% 3.3 km
Sa, 19.01. 19:00 95% 3.9 km
Sa, 19.01. 13:00 72% 11 km
Sa, 19.01. 7:00 93% 5.0 km
Sa, 19.01. 1:00 88% 15 km
Fr, 18.01. 19:00 82% 30 km
Fr, 18.01. 13:00 71% 28 km
Fr, 18.01. 7:00 87% 50 km
Ortszeit Relative Feuchte Sichtweite
So, 20.01. 5:30 93% 4.2 km
So, 20.01. 5:20 93% -
So, 20.01. 5:10 95% -
So, 20.01. 5:00 93% 3.5 km
So, 20.01. 4:50 93% -
So, 20.01. 4:40 94% -
So, 20.01. 4:30 92% 3.3 km
So, 20.01. 4:00 94% 3.3 km
So, 20.01. 3:30 95% 2.8 km
So, 20.01. 3:00 94% 4.1 km
So, 20.01. 2:30 93% 3.0 km
Ortszeit Niederschlagsmenge Niederschlagsart
So, 20.01. 1:00 0.0 l/m2 in 6 Std. -
Sa, 19.01. 19:00 0.0 l/m2 in 12 Std. -
Sa, 19.01. 13:00 0.0 l/m2 in 6 Std. -
Sa, 19.01. 7:00 0.0 l/m2 in 12 Std. -
Sa, 19.01. 1:00 0.0 l/m2 in 6 Std. -
Fr, 18.01. 19:00 0.0 l/m2 in 12 Std. -
Fr, 18.01. 13:00 0.0 l/m2 in 6 Std. -
Fr, 18.01. 7:00 2 l/m2 in 12 Std. Schnee, Sprühregen
Ortszeit Niederschlagsmenge Niederschlagsart
So, 20.01. 5:30 0.0 l/m2 in 1 Std. -
So, 20.01. 5:20 keine Meldung -
So, 20.01. 5:10 keine Meldung -
So, 20.01. 5:00 0.0 l/m2 in 1 Std. -
So, 20.01. 4:50 keine Meldung -
So, 20.01. 4:40 keine Meldung -
So, 20.01. 4:30 0.0 l/m2 in 1 Std. -
So, 20.01. 4:00 0.0 l/m2 in 1 Std. -
So, 20.01. 3:30 0.0 l/m2 in 1 Std. -
So, 20.01. 3:00 0.0 l/m2 in 1 Std. -
So, 20.01. 2:30 0.0 l/m2 in 1 Std. -
Ortszeit Stärke Spitze Richtung
km/h Bft. km/h Grad Sektor
So, 20.01. 1:00 4 1 7 80° O
Sa, 19.01. 19:00 2 1 11 180° S
Sa, 19.01. 13:00 4 1 7 360° N
Sa, 19.01. 7:00 6 1 15 240° SW
Sa, 19.01. 1:00 4 1 25 240° SW
Fr, 18.01. 19:00 13 3 31 270° W
Fr, 18.01. 13:00 22 4 32 240° SW
Fr, 18.01. 7:00 14 3 36 280° W
Ortszeit Stärke Spitze Richtung
km/h Bft. km/h Grad Sektor
So, 20.01. 5:30 2 1 4 350° N
So, 20.01. 5:20 2 1 - 350° N
So, 20.01. 5:10 2 1 - 10° N
So, 20.01. 5:00 0 0 4 - -
So, 20.01. 4:50 0 0 - 110° O
So, 20.01. 4:40 0 0 - 70° O
So, 20.01. 4:30 2 1 4 30° NO
So, 20.01. 4:00 4 1 4 60° NO
So, 20.01. 3:30 4 1 4 40° NO
So, 20.01. 3:00 2 1 4 50° NO
So, 20.01. 2:30 2 1 4 60° NO
Ortszeit Untergrenze Bedeckung Gattung
total tief tief mittel hoch
So, 20.01. 1:00 - 0/8 0/8 - - -
Sa, 19.01. 19:00 - 0/8 0/8 - - -
Sa, 19.01. 13:00 8100 m 8/8 0/8 - - -
Sa, 19.01. 7:00 8400 m 7/8 0/8 - - -
Sa, 19.01. 1:00 540 m 8/8 7/8 - - -
Fr, 18.01. 19:00 450 m 8/8 8/8 - - -
Fr, 18.01. 13:00 - 0/8 0/8 - - -
Fr, 18.01. 7:00 900 m 0/8 0/8 - - -
Ortszeit Bedeckungsgrad in Achtel und Wolkenuntergrenze
So, 20.01. 5:30 keine Wolken
So, 20.01. 5:20 keine Wolken
So, 20.01. 5:10 1(8700m)
So, 20.01. 5:00 5(8700m)
So, 20.01. 4:50 5(8700m)
So, 20.01. 4:40 4(8700m)
So, 20.01. 4:30 1(2400m)
So, 20.01. 4:00 1(2100m)
So, 20.01. 3:30 1(2100m)
So, 20.01. 3:00 keine Wolken
So, 20.01. 2:30 keine Wolken
Ortszeit Luftdruck NN (hPa) Tendenz (hPa in 3 Std.)
So, 20.01. 1:00 1019 - 0,3
Sa, 19.01. 19:00 1019 - 0,4
Sa, 19.01. 13:00 1020 - 0,6
Sa, 19.01. 7:00 1020 - 0,2
Sa, 19.01. 1:00 1021 + 0,3
Fr, 18.01. 19:00 1019 + 1,1
Fr, 18.01. 13:00 1018 + 0,6
Fr, 18.01. 7:00 1014 + 4,0
Ortszeit Luftdruck NN (hPa) Tendenz (hPa in 3 Std.)
So, 20.01. 5:30 1018 0,0
So, 20.01. 5:20 1018 keine Meldung
So, 20.01. 5:10 1018 keine Meldung
So, 20.01. 5:00 1018 - 0,2
So, 20.01. 4:50 1018 keine Meldung
So, 20.01. 4:40 1018 keine Meldung
So, 20.01. 4:30 1018 - 0,3
So, 20.01. 4:00 1018 - 0,4
So, 20.01. 3:30 1018 - 0,6
So, 20.01. 3:00 1018 - 0,6
So, 20.01. 2:30 1018 - 0,7
Ortszeit Schneehöhe (cm)
So, 20.01. 1:00 0
Sa, 19.01. 19:00 0
Sa, 19.01. 13:00 0
Sa, 19.01. 7:00 0
Sa, 19.01. 1:00 0
Fr, 18.01. 19:00 0
Fr, 18.01. 13:00 -
Fr, 18.01. 7:00 1
Ortszeit Schneehöhe (cm)
So, 20.01. 5:30 0
So, 20.01. 5:20 0
So, 20.01. 5:10 0
So, 20.01. 5:00 0
So, 20.01. 4:50 0
So, 20.01. 4:40 0
So, 20.01. 4:30 0
So, 20.01. 4:00 0
So, 20.01. 3:30 0
So, 20.01. 3:00 0
So, 20.01. 2:30 0
Link zu dieser Seite / Seite empfehlen

Das Wetter in ...